User: anonymous   Login
Location: Unspecified
(0.0000°N, 0.0000°E)
Time: 07:15:26
(UTC+00:00)
Language:

50 SAT - Orbit

View from above orbital plane
View from above orbital plane
View from above satellite
View from above satellite

Ground track
Ground track

The orbit data is extracted from the following two-line orbital elements,

1 39436U 13066W   18023.86189313  .00055064  00000-0  77679-3 0  9993
2 39436  97.7112 148.3868 0005669 353.5076   6.6103 15.56409460230727
Epoch (UTC): 23 January 2018 20:41:07
Eccentricity: 0.0005669
inclination: 97.7112°
perigee height: 394 km
apogee height: 402 km
right ascension of ascending node: 148.3868°
argument of perigee: 353.5076°
revolutions per day: 15.56409460
mean anomaly at epoch: 6.6103°
orbit number at epoch: 23072

The dashed part of the orbit path shows where the satellite is in the earth's shadow,  

DLR